H1 CPF 2 NER 2026 2 12 9 043 01 glonass138 H2 1805301 9138 43508 2026 2 12 0 0 0 2026 2 15 23 45 0 900 1 1 0 0 0 1 H9 10 0 61083 0.00000 0 -7149575.826 23087766.173 8138788.373 10 0 61083 900.00000 0 -7311084.518 23905223.386 5036276.997 10 0 61083 1800.00000 0 -7277528.453 24368508.796 1835839.251 10 0 61083 2700.00000 0 -7097875.182 24448036.151 -1400304.977 10 0 61083 3600.00000 0 -6826374.660 24126840.087 -4609206.025 10 0 61083 4500.00000 0 -6520026.951 23401369.887 -7728416.222 10 0 61083 5400.00000 0 -6235938.006 22281736.896 -10697213.902 10 0 61083 6300.00000 0 -6028676.723 20791404.024 -13457794.869 10 0 61083 7200.00000 0 -5947746.472 18966329.515 -15956406.926 10 0 61083 8100.00000 0 -6035279.517 16853600.403 -18144404.481 10 0 61083 9000.00000 0 -6324053.178 14509612.787 -19979201.900 10 0 61083 9900.00000 0 -6835912.790 11997875.239 -21425106.532 10 0 61083 10800.00000 0 -7580669.049 9386527.544 -22454014.943 10 0 61083 11700.00000 0 -8555517.043 6745678.765 -23045958.909 10 0 61083 12600.00000 0 -9745002.012 4144676.022 -23189490.764 10 0 61083 13500.00000 0 -11121533.611 1649418.004 -22881901.065 10 0 61083 14400.00000 0 -12646427.272 -680175.060 -22129264.856 10 0 61083 15300.00000 0 -14271428.935 -2792430.035 -20946316.189 10 0 61083 16200.00000 0 -15940659.116 -4645834.474 -19356153.848 10 0 61083 17100.00000 0 -17592894.648 -6210516.707 -17389784.464 10 0 61083 18000.00000 0 -19164092.237 -7469232.168 -15085512.297 10 0 61083 18900.00000 0 -20590047.885 -8417816.629 -12488187.912 10 0 61083 19800.00000 0 -21809080.547 -9065089.379 -9648330.632 10 0 61083 20700.00000 0 -22764627.398 -9432212.457 -6621142.133 10 0 61083 21600.00000 0 -23407641.885 -9551534.855 -3465430.676 10 0 61083 22500.00000 0 -23698694.055 -9464972.131 -242467.088 10 0 61083 23400.00000 0 -23609685.255 -9221991.248 2985204.967 10 0 61083 24300.00000 0 -23125105.537 -8877286.849 6154981.165 10 0 61083 25200.00000 0 -22242781.355 -8488247.872 9205407.575 10 0 61083 26100.00000 0 -20974082.496 -8112321.938 12077367.144 10 0 61083 27000.00000 0 -19343579.789 -7804388.902 14715218.908 10 0 61083 27900.00000 0 -17388167.953 -7614254.271 17067868.379 10 0 61083 28800.00000 0 -15155690.047 -7584367.859 19089749.005 10 0 61083 29700.00000 0 -12703120.499 -7747863.460 20741696.574 10 0 61083 30600.00000 0 -10094381.657 -8127001.700 21991700.553 10 0 61083 31500.00000 0 -7397883.784 -8732081.483 22815518.667 10 0 61083 32400.00000 0 -4683889.482 -9560865.883 23197143.631 10 0 61083 33300.00000 0 -2021810.637 -10598547.150 23129113.498 10 0 61083 34200.00000 0 522451.340 -11818253.195 22612659.840 10 0 61083 35100.00000 0 2889012.987 -13182075.569 21657690.736 10 0 61083 36000.00000 0 5026261.159 -14642577.418 20282608.373 10 0 61083 36900.00000 0 6892757.729 -16144719.788 18513963.915 10 0 61083 37800.00000 0 8458718.176 -17628127.187 16385955.244 10 0 61083 38700.00000 0 9707003.027 -19029598.755 13939775.988 10 0 61083 39600.00000 0 10633581.002 -20285760.705 11222827.281 10 0 61083 40500.00000 0 11247444.653 -21335749.177 8287806.366 10 0 61083 41400.00000 0 11569982.074 -22123810.828 5191688.896 10 0 61083 42300.00000 0 11633831.132 -22601711.198 1994624.181 10 0 61083 43200.00000 0 11481264.634 -22730848.565 -1241235.245 10 0 61083 44100.00000 0 11162174.890 -22483982.915 -4452946.723 10 0 61083 45000.00000 0 10731743.376 -21846505.661 -7578008.958 10 0 61083 45900.00000 0 10247894.857 -20817195.060 -10555587.021 10 0 61083 46800.00000 0 9768644.710 -19408424.011 -13327705.992 10 0 61083 47700.00000 0 9349452.892 -17645810.246 -15840388.876 10 0 61083 48600.00000 0 9040697.766 -15567322.659 -18044715.658 10 0 61083 49500.00000 0 8885377.816 -13221880.627 -19897782.111 10 0 61083 50400.00000 0 8917139.508 -10667504.786 -21363539.140 10 0 61083 51300.00000 0 9158715.440 -7969096.561 -22413496.085 10 0 61083 52200.00000 0 9620839.345 -5195939.345 -23027274.353 10 0 61083 53100.00000 0 10301684.078 -2419025.789 -23193000.844 10 0 61083 54000.00000 0 11186846.434 291677.329 -22907533.967 10 0 61083 54900.00000 0 12249879.379 2869912.838 -22176518.362 10 0 61083 55800.00000 0 13453349.185 5255654.103 -21014267.800 10 0 61083 56700.00000 0 14750372.699 7397358.899 -19443479.086 10 0 61083 57600.00000 0 16086569.880 9253863.360 -17494782.941 10 0 61083 58500.00000 0 17402349.174 10795838.392 -15206141.061 10 0 61083 59400.00000 0 18635429.425 12006749.392 -12622101.372 10 0 61083 60300.00000 0 19723492.050 12883281.054 -9792926.295 10 0 61083 61200.00000 0 20606851.830 13435211.421 -6773611.277 10 0 61083 62100.00000 0 21231033.907 13684742.492 -3622812.941 10 0 61083 63000.00000 0 21549148.668 13665317.429 -401707.956 10 0 61083 63900.00000 0 21523964.692 13419975.808 2827194.927 10 0 61083 64800.00000 0 21129592.815 12999317.631 6001266.443 10 0 61083 65700.00000 0 20352710.672 12459162.979 9058968.427 10 0 61083 66600.00000 0 19193276.494 11858006.676 11941042.010 10 0 61083 67500.00000 0 17664702.236 11254375.619 14591649.657 10 0 61083 68400.00000 0 15793478.697 10704200.143 16959449.427 10 0 61083 69300.00000 0 13618268.017 10258309.890 18998581.276 10 0 61083 70200.00000 0 11188500.881 9960159.153 20669547.146 10 0 61083 71100.00000 0 8562536.076 9843876.850 21939968.730 10 0 61083 72000.00000 0 5805457.958 9932722.683 22785209.096 10 0 61083 72900.00000 0 2986602.051 10238014.048 23188846.922 10 0 61083 73800.00000 0 176910.064 10758568.798 23142994.713 10 0 61083 74700.00000 0 -2553777.458 11480687.624 22648455.047 10 0 61083 75600.00000 0 -5139380.030 12378677.552 21714711.722 10 0 61083 76500.00000 0 -7520078.792 13415895.692 20359755.447 10 0 61083 77400.00000 0 -9644557.977 14546270.746 18609746.618 10 0 61083 78300.00000 0 -11471894.093 15716239.807 16498520.618 10 0 61083 79200.00000 0 -12973014.749 16867020.468 14066943.955 10 0 61083 80100.00000 0 -14131666.647 17937123.794 11362132.473 10 0 61083 81000.00000 0 -14944852.396 18865003.182 8436545.683 10 0 61083 81900.00000 0 -15422717.857 19591727.844 5346973.861 10 0 61083 82800.00000 0 -15587894.666 20063567.956 2153437.111 10 0 61083 83700.00000 0 -15474325.624 20234381.706 -1081982.381 10 0 61083 84600.00000 0 -15125622.589 20067702.353 -4296351.924 10 0 61083 85500.00000 0 -14593026.550 19538435.713 -7427119.503 10 0 61084 0.00000 0 -13933056.744 18634094.906 -10413339.456 10 0 61084 900.00000 0 -13204948.648 17355518.063 -13196869.301 10 0 61084 1800.00000 0 -12467991.161 15717038.508 -15723509.355 10 0 61084 2700.00000 0 -11778875.439 13746097.326 -17944067.283 10 0 61084 3600.00000 0 -11189169.442 11482314.707 -19815322.058 10 0 61084 4500.00000 0 -10743025.512 8976057.911 -21300869.601 10 0 61084 5400.00000 0 -10475218.615 6286565.495 -22371833.132 10 0 61084 6300.00000 0 -10409598.492 3479706.035 -23007424.458 10 0 61084 7200.00000 0 -10558021.252 625464.902 -23195345.456 10 0 61084 8100.00000 0 -10919805.350 -2204736.149 -22932022.434 10 0 61084 9000.00000 0 -11481734.621 -4940775.012 -22222669.285 10 0 61084 9900.00000 0 -12218607.771 -7516507.222 -21081178.765 10 0 61084 10800.00000 0 -13094310.675 -9872274.938 -19529844.562 10 0 61084 11700.00000 0 -14063365.752 -11957143.253 -17598919.985 10 0 61084 12600.00000 0 -15072892.615 -13730771.727 -15326022.312 10 0 61084 13500.00000 0 -16064896.937 -15164844.468 -12755394.704 10 0 61084 14400.00000 0 -16978790.702 -16244000.673 -9937040.347 10 0 61084 15300.00000 0 -17754037.345 -16966228.486 -6925745.952 10 0 61084 16200.00000 0 -18332810.094 -17342707.576 -3780013.907 10 0 61084 17100.00000 0 -18662551.407 -17397108.907 -560924.054 10 0 61084 18000.00000 0 -18698325.623 -17164382.870 2669052.498 10 0 61084 18900.00000 0 -18404865.782 -16689088.279 5847264.311 10 0 61084 19800.00000 0 -17758228.536 -16023333.816 8912091.767 10 0 61084 20700.00000 0 -16746987.599 -15224419.471 11804136.938 10 0 61084 21600.00000 0 -15372915.564 -14352277.831 14467368.399 10 0 61084 22500.00000 0 -13651125.322 -13466823.023 16850199.283 10 0 61084 23400.00000 0 -11609664.787 -12625318.726 18906478.342 10 0 61084 24300.00000 0 -9288581.222 -11879875.393 20596375.657 10 0 61084 25200.00000 0 -6738493.342 -11275181.272 21887146.769 10 0 61084 26100.00000 0 -4018729.491 -10846561.810 22753761.297 10 0 61084 27000.00000 0 -1195107.948 -10618448.269 23179384.685 10 0 61084 27900.00000 0 1662550.008 -10603319.419 23155704.280 10 0 61084 28800.00000 0 4483072.705 -10801160.541 22683093.687 10 0 61084 29700.00000 0 7196647.935 -11199462.693 21770612.092 10 0 61084 30600.00000 0 9737479.185 -11773762.823 20435838.079 10 0 61084 31500.00000 0 12046279.238 -12488702.926 18704540.331 10 0 61084 32400.00000 0 14072498.585 -13299564.847 16610190.497 10 0 61084 33300.00000 0 15776196.602 -14154217.322 14193326.402 10 0 61084 34200.00000 0 17129477.880 -14995394.355 11500776.724 10 0 61084 35100.00000 0 18117433.823 -15763209.751 8584761.008 10 0 61084 36000.00000 0 18738550.018 -16397802.176 5501881.604 10 0 61084 36900.00000 0 19004562.109 -16841999.065 2312026.555 10 0 61084 37800.00000 0 18939766.027 -17043886.331 -922795.361 10 0 61084 38700.00000 0 18579811.607 -16959174.312 -4139664.609 10 0 61084 39600.00000 0 17970030.517 -16553258.564 -7275981.667 10 0 61084 40500.00000 0 17163369.495 -15802886.850 -10270693.788 10 0 61084 41400.00000 0 16218016.748 -14697360.118 -13065492.845 10 0 61084 42300.00000 0 15194822.632 -13239215.120 -15605959.795 10 0 61084 43200.00000 0 14154624.531 -11444358.317 -17842632.520 10 0 61084 44100.00000 0 13155589.861 -9341644.101 -19731975.421 10 0 61084 45000.00000 0 12250690.277 -6971914.007 -21237231.336 10 0 61084 45900.00000 0 11485414.315 -4386536.491 -22329138.901 10 0 61084 46800.00000 0 10895815.348 -1645507.869 -22986501.442 10 0 61084 47700.00000 0 10506977.223 1184806.450 -23196596.529 10 0 61084 48600.00000 0 10331962.006 4034196.366 -22955418.655 10 0 61084 49500.00000 0 10371283.641 6831292.061 -22267750.847 10 0 61084 50400.00000 0 10612929.006 9506297.878 -21147064.344 10 0 61084 51300.00000 0 11032924.578 11993661.682 -19615248.848 10 0 61084 52200.00000 0 11596423.974 14234569.120 -17702179.032 10 0 61084 53100.00000 0 12259269.606 16179159.650 -15445126.195 10 0 61084 54000.00000 0 12969961.809 17788373.064 -12888026.823 10 0 61084 54900.00000 0 13671951.691 19035350.742 -10080622.609 10 0 61084 55800.00000 0 14306160.401 19906334.572 -7077488.958 10 0 61084 56700.00000 0 14813618.072 20401027.610 -3936971.151 10 0 61084 57600.00000 0 15138110.800 20532403.063 -720049.106 10 0 61084 58500.00000 0 15228723.783 20325971.317 2510846.942 10 0 61084 59400.00000 0 15042173.306 19818537.312 5693046.663 10 0 61084 60300.00000 0 14544829.217 19056501.837 8764852.209 10 0 61084 61200.00000 0 13714342.731 18093779.170 11666729.676 10 0 61084 62100.00000 0 12540811.015 16989419.267 14342456.616 10 0 61084 63000.00000 0 11027429.396 15805034.754 16740203.853 10 0 61084 63900.00000 0 9190603.500 14602140.734 18813531.273 10 0 61084 64800.00000 0 7059515.962 13439518.692 20522279.120 10 0 61084 65700.00000 0 4675164.893 12370714.456 21833338.481 10 0 61084 66600.00000 0 2088913.046 11441774.321 22721286.869 10 0 61084 67500.00000 0 -639393.384 10689313.369 23168877.447 10 0 61084 68400.00000 0 -3443659.742 10138996.166 23167372.929 10 0 61084 69300.00000 0 -6254040.581 9804492.919 22716717.999 10 0 61084 70200.00000 0 -8999598.096 9686954.563 21825546.785 10 0 61084 71100.00000 0 -11611012.655 9775028.838 20511024.781 10 0 61084 72000.00000 0 -14023234.288 10045417.054 18798527.474 10 0 61084 72900.00000 0 -16177966.112 10463948.790 16721160.819 10 0 61084 73800.00000 0 -18025877.162 10987130.191 14319131.594 10 0 61084 74700.00000 0 -19528452.831 11564101.472 11638978.614 10 0 61084 75600.00000 0 -20659405.746 12138921.894 8732678.551 10 0 61084 76500.00000 0 -21405587.928 12653086.228 5656642.781 10 0 61084 77400.00000 0 -21767365.619 13048166.486 2470624.213 10 0 61084 78300.00000 0 -21758440.673 13268466.901 -763444.861 10 0 61084 79200.00000 0 -21405125.694 13263579.055 -3982661.076 10 0 61084 80100.00000 0 -20745103.304 12990727.789 -7124380.340 10 0 61084 81000.00000 0 -19825721.914 12416807.194 -10127445.391 10 0 61084 81900.00000 0 -18701900.274 11520018.805 -12933385.658 10 0 61084 82800.00000 0 -17433729.803 10291041.056 -15487564.923 10 0 61084 83700.00000 0 -16083876.662 8733678.924 -17740253.455 10 0 61084 84600.00000 0 -14714893.982 6864964.818 -19647602.935 10 0 61084 85500.00000 0 -13386558.417 4714705.227 -21172504.578 10 0 61085 0.00000 0 -12153343.979 2324491.331 -22285313.415 10 0 61085 900.00000 0 -11062139.299 -253787.012 -22964425.147 10 0 61085 1800.00000 0 -10150306.093 -2959858.973 -23196693.153 10 0 61085 2700.00000 0 -9444158.024 -5727346.615 -22977679.963 10 0 61085 3600.00000 0 -8957925.019 -8486297.153 -22311737.210 10 0 61085 4500.00000 0 -8693245.001 -11165869.434 -21211913.727 10 0 61085 5400.00000 0 -8639203.420 -13697062.811 -19699694.005 10 0 61085 6300.00000 0 -8772917.695 -16015375.109 -17804572.563 10 0 61085 7200.00000 0 -9060640.663 -18063279.478 -15563472.937 10 0 61085 8100.00000 0 -9459335.332 -19792417.627 -13020022.964 10 0 61085 9000.00000 0 -9918653.425 -21165418.946 -10223700.723 10 0 61085 9900.00000 0 -10383233.315 -22157270.656 -7228868.094 10 0 61085 10800.00000 0 -10795219.554 -22756183.066 -4093710.986 10 0 61085 11700.00000 0 -11096897.089 -22963915.183 -879107.079 10 0 61085 12600.00000 0 -11233328.504 -22795548.500 2352556.618 10 0 61085 13500.00000 0 -11154882.711 -22278719.887 5538593.274 10 0 61085 14400.00000 0 -10819548.287 -21452347.117 8617229.250 10 0 61085 15300.00000 0 -10194933.806 -20364901.540 11528797.142 10 0 61085 16200.00000 0 -9259870.858 -19072301.238 14216885.953 10 0 61085 17100.00000 0 -8005552.157 -17635513.453 16629426.614 10 0 61085 18000.00000 0 -6436156.603 -16117966.922 18719692.425 10 0 61085 18900.00000 0 -4568934.545 -14582882.275 20447195.879 10 0 61085 19800.00000 0 -2433748.814 -13090631.674 21778465.421 10 0 61085 20700.00000 0 -72089.577 -11696237.391 22687687.964 10 0 61085 21600.00000 0 2464397.353 -10447112.987 23157205.535 10 0 61085 22500.00000 0 5115809.135 -9381140.552 23177857.013 10 0 61085 23400.00000 0 7816234.294 -8525163.565 22749158.598 10 0 61085 24300.00000 0 10496259.294 -7893957.713 21879319.459 10 0 61085 25200.00000 0 13085630.974 -7489722.354 20585091.770 10 0 61085 26100.00000 0 15515965.738 -7302113.834 18891457.274 10 0 61085 27000.00000 0 17723394.174 -7308819.457 16831155.359 10 0 61085 27900.00000 0 19651031.914 -7476648.397 14444060.538 10 0 61085 28800.00000 0 21251174.254 -7763094.227 11776420.183 10 0 61085 29700.00000 0 22487122.985 -8118303.765 8879966.122 10 0 61085 30600.00000 0 23334568.861 -8487369.537 5810916.404 10 0 61085 31500.00000 0 23782471.237 -8812849.160 2628886.075 10 0 61085 32400.00000 0 23833397.423 -9037404.848 -604272.079 10 0 61085 33300.00000 0 23503306.876 -9106450.698 -3825674.107 10 0 61085 34200.00000 0 22820788.861 -8970694.638 -6972634.677 10 0 61085 35100.00000 0 21825785.455 -8588466.041 -9983895.315 10 0 61085 36000.00000 0 20567853.727 -7927728.856 -12800826.186 10 0 61085 36900.00000 0 19104040.671 -6967693.370 -15368576.857 10 0 61085 37800.00000 0 17496460.964 -5699956.758 -17637152.689 10 0 61085 38700.00000 0 15809680.308 -4129122.633 -19562395.041 10 0 61085 39600.00000 0 14108015.215 -2272872.063 -21106845.597 10 0 61085 40500.00000 0 12452863.495 -161481.859 -22240477.695 10 0 61085 41400.00000 0 10900178.074 2163190.605 -22941280.407 10 0 61085 42300.00000 0 9498190.425 4649214.153 -23195684.193 10 0 61085 43200.00000 0 8285478.974 7236519.590 -22998820.266 10 0 61085 44100.00000 0 7289462.937 9859183.967 -22354609.116 10 0 61085 45000.00000 0 6525383.886 12447968.150 -21275677.028 10 0 61085 45900.00000 0 5995816.531 14933002.096 -19783102.750 10 0 61085 46800.00000 0 5690727.820 17246506.112 -17905999.721 10 0 61085 47700.00000 0 5588080.286 19325434.933 -15680942.411 10 0 61085 48600.00000 0 5654952.689 21113934.844 -13151248.308 10 0 61085 49500.00000 0 5849129.228 22565511.939 -10366129.807 10 0 61085 50400.00000 0 6121088.999 23644821.765 -7379732.824 10 0 61085 51300.00000 0 6416310.593 24329006.535 -4250081.121 10 0 61085 52200.00000 0 6677793.657 24608525.107 -1037947.096 10 0 61085 53100.00000 0 6848690.219 24487442.172 2194328.709 10 0 61085 54000.00000 0 6874934.221 23983165.784 5384046.312 10 0 61085 54900.00000 0 6707757.931 23125645.405 8469359.643 10 0 61085 55800.00000 0 6305988.941 21956065.076 11390471.065 10 0 61085 56700.00000 0 5638030.775 20525087.319 14090784.148 10 0 61085 57600.00000 0 4683443.636 18890721.777 16517992.833 10 0 61085 58500.00000 0 3434058.571 17115908.027 18625086.482 10 0 61085 59400.00000 0 1894577.864 15265913.477 20371252.196 10 0 61085 60300.00000 0 82635.803 13405654.580 21722657.822 10 0 61085 61200.00000 0 -1971683.706 11597052.491 22653101.351 10 0 61085 62100.00000 0 -4226853.842 9896532.529 23144514.965 10 0 61085 63000.00000 0 -6631395.504 8352770.712 23187314.548 10 0 61085 63900.00000 0 -9125791.531 7004780.309 22780588.169 10 0 61085 64800.00000 0 -11644746.761 5880417.340 21932119.850 10 0 61085 65700.00000 0 -14119701.771 4995366.659 20658247.699 10 0 61085 66600.00000 0 -16481497.380 4352650.565 18983558.403 10 0 61085 67500.00000 0 -18663080.485 3942680.276 16940422.920 10 0 61085 68400.00000 0 -20602139.547 3743848.160 14568381.147 10 0 61085 69300.00000 0 -22243560.405 3723636.082 11913386.254 10 0 61085 70200.00000 0 -23541600.028 3840193.488 9026922.159 10 0 61085 71100.00000 0 -24461687.054 4044319.008 5965010.312 10 0 61085 72000.00000 0 -24981773.072 4281761.960 2787124.536 10 0 61085 72900.00000 0 -25093177.189 4495746.293 -444965.274 10 0 61085 73800.00000 0 -24800887.558 4629609.642 -3668397.899 10 0 61085 74700.00000 0 -24123306.380 4629444.844 -6820450.000 10 0 61085 75600.00000 0 -23091448.527 4446630.822 -9839764.990 10 0 61085 76500.00000 0 -21747627.195 4040144.161 -12667556.685 10 0 61085 77400.00000 0 -20143681.894 3378551.895 -15248763.127 10 0 61085 78300.00000 0 -18338823.638 2441599.495 -17533127.147 10 0 61085 79200.00000 0 -16397188.459 1221325.371 -19476181.785 10 0 61085 80100.00000 0 -14385202.681 -277346.674 -21040120.735 10 0 61085 81000.00000 0 -12368871.239 -2036563.212 -22194536.613 10 0 61085 81900.00000 0 -10411103.246 -4026048.179 -22917012.586 10 0 61085 82800.00000 0 -8569187.217 -6204140.508 -23193556.086 10 0 61085 83700.00000 0 -6892521.589 -8519319.550 -23018866.544 10 0 61085 84600.00000 0 -5420695.124 -10912154.817 -22396432.407 10 0 61085 85500.00000 0 -4181996.713 -13317598.738 -21338456.145 10 0 61086 0.00000 0 -3192415.844 -15667526.650 -19865609.334 10 0 61086 900.00000 0 -2455173.614 -17893419.331 -18006622.243 10 0 61086 1800.00000 0 -1960803.490 -19929073.130 -15797718.382 10 0 61086 2700.00000 0 -1687774.848 -21713228.984 -13281902.755 10 0 61086 3600.00000 0 -1603632.631 -23192007.706 -10508119.867 10 0 61086 4500.00000 0 -1666602.848 -24321051.548 -7530297.445 10 0 61086 5400.00000 0 -1827594.848 -25067282.908 -4406294.884 10 0 61086 6300.00000 0 -2032514.626 -25410207.396 -1196777.104 10 0 61086 7200.00000 0 -2224790.496 -25342707.581 2035963.998 10 0 61086 8100.00000 0 -2348003.769 -24871295.134 5229217.448 10 0 61086 9000.00000 0 -2348512.871 -24015811.758 8321066.910 10 0 61086 9900.00000 0 -2177959.857 -22808592.291 11251586.687 10 0 61086 10800.00000 0 -1795553.497 -21293125.737 13963997.069 10 0 61086 11700.00000 0 -1170032.609 -19522270.717 16405757.111 10 0 61086 12600.00000 0 -281226.962 -17556100.140 18529574.246 10 0 61086 13500.00000 0 878850.147 -15459465.006 20294312.030 10 0 61086 14400.00000 0 2305423.901 -13299378.499 21665779.338 10 0 61086 15300.00000 0 3980919.556 -11142328.729 22617386.609 10 0 61086 16200.00000 0 5875466.277 -9051631.077 23130657.254 10 0 61086 17100.00000 0 7947923.570 -7084929.232 23195584.924 10 0 61086 18000.00000 0 10147389.133 -5291947.845 22810830.011 10 0 61086 18900.00000 0 12415127.060 -3712589.205 21983751.546 10 0 61086 19800.00000 0 14686837.970 -2375452.309 20730273.442 10 0 61086 20700.00000 0 16895178.202 -1296835.328 19074586.909 10 0 61086 21600.00000 0 18972424.631 -480262.627 17048693.783 10 0 61086 22500.00000 0 20853175.182 83444.122 14691798.356 10 0 61086 23400.00000 0 22476973.016 415553.782 12049558.285 10 0 61086 24300.00000 0 23790744.982 548298.189 9173207.923 10 0 61086 25200.00000 0 24750952.085 523276.543 6118570.124 10 0 61086 26100.00000 0 25325361.234 389459.036 2944975.129 10 0 61086 27000.00000 0 25494363.005 200874.209 -285892.718 10 0 61086 27900.00000 0 25251779.021 14078.293 -3511197.847 10 0 61086 28800.00000 0 24605123.905 -114485.593 -6668181.963 10 0 61086 29700.00000 0 23575309.852 -131125.466 -9695393.466 10 0 61086 30600.00000 0 22195805.522 12577.331 -12533892.845 10 0 61086 31500.00000 0 20511284.221 357470.088 -15128409.485 10 0 61086 32400.00000 0 18575818.144 934853.691 -17428426.344 10 0 61086 33300.00000 0 16450694.696 1764915.660 -19389170.548 10 0 61086 34200.00000 0 14201947.019 2855638.897 -20972489.972 10 0 61086 35100.00000 0 11897702.738 4202233.456 -22147598.406 10 0 61086 36000.00000 0 9605462.455 5787116.315 -22891674.759 10 0 61086 36900.00000 0 7389422.219 7580440.817 -23190304.795 10 0 61086 37800.00000 0 5307951.960 9541154.148 -23037757.203 10 0 61086 38700.00000 0 3411334.969 11618538.904 -22437089.095 10 0 61086 39600.00000 0 1739862.202 13754174.395 -21400079.442 10 0 61086 40500.00000 0 322359.960 15884235.717 -19946992.270 10 0 61086 41400.00000 0 -824788.959 17942034.515 -18106174.713 10 0 61086 42300.00000 0 -1698091.337 19860695.172 -15913498.170 10 0 61086 43200.00000 0 -2306840.144 21575854.629 -13411653.832 10 0 61086 44100.00000 0 -2672467.954 23028273.034 -10649316.570 10 0 61086 45000.00000 0 -2827386.345 24166246.223 -7680193.796 10 0 61086 45900.00000 0 -2813361.922 24947719.401 -4561978.060 10 0 61086 46800.00000 0 -2679499.012 25342014.002 -1355224.024 10 0 61086 47700.00000 0 -2479915.426 25331095.957 1877828.089 10 0 61086 48600.00000 0 -2271210.387 24910332.905 5074459.513 10 0 61086 49500.00000 0 -2109832.219 24088709.319 8172686.936 10 0 61086 50400.00000 0 -2049457.335 22888491.172 11112459.908 10 0 61086 51300.00000 0 -2138491.295 21344354.749 13836818.696 10 0 61086 52200.00000 0 -2417797.317 19502016.366 16292990.607 10 0 61086 53100.00000 0 -2918747.919 17416420.402 18433404.116 10 0 61086 54000.00000 0 -3661681.659 15149561.081 20216601.988 10 0 61086 54900.00000 0 -4654830.001 12768028.324 21608036.628 10 0 61086 55800.00000 0 -5893759.759 10340379.141 22580733.106 10 0 61086 56700.00000 0 -7361355.203 7934442.910 23115807.877 10 0 61086 57600.00000 0 -9028341.684 5614671.394 23202833.742 10 0 61086 58500.00000 0 -10854330.234 3439642.408 22840044.304 10 0 61086 59400.00000 0 -12789341.166 1459819.665 22034373.940 10 0 61086 60300.00000 0 -14775744.858 -284339.211 20801332.100 10 0 61086 61200.00000 0 -16750540.436 -1763848.629 19164713.647 10 0 61086 62100.00000 0 -18647878.853 -2962174.599 17156149.804 10 0 61086 63000.00000 0 -20401726.319 -3875687.486 14814507.192 10 0 61086 63900.00000 0 -21948557.597 -4513569.248 12185145.386 10 0 61086 64800.00000 0 -23229966.906 -4897179.171 9319046.188 10 0 61086 65700.00000 0 -24195086.974 -5058904.759 6271830.547 10 0 61086 66600.00000 0 -24802714.195 -5040546.220 3102681.611 10 0 61086 67500.00000 0 -25023049.725 -4891302.845 -126805.456 10 0 61086 68400.00000 0 -24838982.151 -4665446.750 -3353824.382 10 0 61086 69300.00000 0 -24246856.462 -4419783.005 -6515585.542 10 0 61086 70200.00000 0 -23256695.698 -4211004.589 -9550545.832 10 0 61086 71100.00000 0 -21891864.855 -4093055.347 -12399615.785 10 0 61086 72000.00000 0 -20188190.356 -4114613.981 -15007319.265 10 0 61086 72900.00000 0 -18192571.603 -4316807.016 -17322882.180 10 0 61086 73800.00000 0 -15961142.720 -4731248.962 -19301228.170 10 0 61086 74700.00000 0 -13557061.735 -5378493.841 -20903861.203 10 0 61086 75600.00000 0 -11048020.082 -6266964.646 -22099617.587 10 0 61086 76500.00000 0 -8503576.999 -7392406.850 -22865272.693 10 0 61086 77400.00000 0 -5992430.542 -8737889.737 -23185990.715 10 0 61086 78300.00000 0 -3579739.296 -10274356.001 -23055609.107 10 0 61086 79200.00000 0 -1324606.357 -11961696.879 -22476752.631 10 0 61086 80100.00000 0 722169.899 -13750307.830 -21460775.313 10 0 61086 81000.00000 0 2519985.340 -15583059.560 -20027531.980 10 0 61086 81900.00000 0 4039882.292 -17397601.744 -18204984.298 10 0 61086 82800.00000 0 5265505.330 -19128902.825 -16028649.411 10 0 61086 83700.00000 0 6193522.547 -20711919.389 -13540902.298 10 0 61086 84600.00000 0 6833496.694 -22084283.252 -10790145.717 10 0 61086 85500.00000 0 7207213.631 -23188893.637 -7829864.236 99